[[[{"header":{"parameterUnit":"kt","parameterCategory":2,"dx":1,"dy":1,"la1":30.253999710083008,"la2":30.299108505249023,"lo1":-89.0895004272461,"lo2":-89.04439544677734,"nx":28,"ny":28,"refTime":"2022-10-21T21:00:00:Z","depth":0,"parameterNumber":1,"parameterNumberName":"U-component_of_WINDS"},"data":[0.988,0.9841,0.9804,0.9741,0.9696,0.9646,0.9615,0.9571,0.9527,0.946,0.9414,0.9371,0.9309,0.9243,0.9189,0.917,0.9149,0.9162,0.9137,0.9116,0.9111,0.9105,0.9112,0.9159,0.9159,0.9164,0.9164,0.9164,0.9864,0.9821,0.9778,0.971,0.9671,0.9636,0.9578,0.9548,0.9503,0.9448,0.9401,0.9338,0.9283,0.9215,0.9155,0.9132,0.9111,0.9118,0.9118,0.9109,0.9085,0.9093,0.9137,0.9137,0.9137,0.9137,0.9137,0.9137,0.9825,0.9804,0.9742,0.9694,0.965,0.9604,0.9576,0.9524,0.948,0.9415,0.9378,0.9325,0.9261,0.9169,0.9129,0.9085,0.9069,0.9065,0.9063,0.9062,0.9066,0.906,0.9073,0.9073,0.9073,0.9072,0.9072,0,0.9784,0.9755,0.9711,0.9656,0.9619,0.9572,0.9523,0.9504,0.9427,0.9393,0.9341,0.9304,0.923,0.9174,0.9109,0.9067,0.9024,0.9017,0.9013,0.9029,0.9051,0.9035,0.8997,0.9016,0.9016,0.9015,0.9015,0.9015,0.9739,0.972,0.9637,0.9611,0.9575,0.9535,0.9502,0.9436,0.9404,0.9332,0.9315,0.926,0.9212,0.9133,0.907,0.9014,0.8992,0.9003,0.8983,0.8999,0.8988,0.8989,0.8985,0.9008,0.9009,0.9009,0.901,0,0.9717,0.9656,0.9614,0.9534,0.9513,0.9495,0.9424,0.94,0.9352,0.9311,0.9297,0.9221,0.917,0.9105,0.9034,0.9001,0.8965,0.8947,0.8986,0.8978,0.8979,0.8979,0.9,0.8998,0.8952,0.8952,0.8953,0,0.9653,0.963,0.9541,0.952,0.9491,0.9425,0.9398,0.9355,0.93,0.9267,0.921,0.918,0.9102,0.9062,0.9014,0.8973,0.8961,0.8932,0.8919,0.8936,0.8939,0.8916,0.8912,0.8895,0.8895,0.8895,0.8895,0,0.9621,0.9549,0.9514,0.9488,0.9399,0.9384,0.9346,0.9286,0.9254,0.9204,0.9182,0.9128,0.9097,0.9055,0.8994,0.8982,0.8944,0.8915,0.8914,0.8915,0.8908,0.8909,0.8946,0.8895,0.8895,0.8895,0.8895,0,0.9559,0.9512,0.9473,0.9397,0.9381,0.9359,0.9301,0.9267,0.9207,0.9176,0.9135,0.9089,0.9051,0.9027,0.8972,0.8974,0.8946,0.8916,0.8915,0.8906,0.888,0.8906,0.895,0.8951,0.8899,0.8899,0.8899,0,0.9538,0.9483,0.9427,0.9391,0.9356,0.9294,0.9268,0.9217,0.9173,0.9136,0.9087,0.9045,0.9014,0.8992,0.8974,0.8921,0.8918,0.892,0.8861,0.886,0.8877,0.8917,0.8939,0.8948,0.8899,0.8899,0.8899,0,0.9513,0.9409,0.9407,0.9372,0.9297,0.9269,0.924,0.9184,0.9162,0.9113,0.9084,0.9027,0.8999,0.8964,0.8921,0.8906,0.8918,0.8879,0.8876,0.8885,0.8895,0.8914,0.8916,0.8892,0.8892,0.8892,0.8898,0,0.9427,0.9393,0.9386,0.9316,0.9285,0.9261,0.9194,0.9169,0.9131,0.9086,0.9045,0.8988,0.8931,0.8918,0.8882,0.8868,0.886,0.8832,0.8802,0.8831,0.8831,0.8831,0.8807,0.8806,0.8805,0.8804,0,0,0.9419,0.937,0.931,0.928,0.925,0.9186,0.9165,0.9128,0.9055,0.9034,0.9018,0.8928,0.8883,0.884,0.8843,0.8822,0.8812,0.8806,0.8819,0.8821,0.8822,0.8824,0.8825,0.8802,0.8802,0.8801,0.8801,0,0.9373,0.9332,0.9314,0.9273,0.921,0.9164,0.916,0.9086,0.9057,0.9019,0.8965,0.8933,0.8866,0.8823,0.8792,0.881,0.8771,0.8799,0.8829,0.8811,0.8814,0.8817,0.8819,0.8821,0.8799,0.8799,0.8799,0,0.9334,0.9281,0.9267,0.9197,0.9156,0.9123,0.9076,0.9045,0.9019,0.8951,0.8914,0.8873,0.8812,0.8783,0.8767,0.8751,0.8736,0.8731,0.8736,0.8732,0.8711,0.8715,0.8719,0.867,0.8669,0.8669,0,0,0.9304,0.9273,0.9196,0.9183,0.916,0.9092,0.9069,0.9029,0.8976,0.8956,0.8903,0.8853,0.8812,0.8787,0.8746,0.8724,0.8704,0.8718,0.8724,0.8729,0.8729,0.8709,0.8713,0.8669,0.8669,0.8669,0,0,0.9288,0.9198,0.917,0.9147,0.9099,0.9021,0.9015,0.8978,0.8934,0.893,0.886,0.8844,0.8815,0.8778,0.8777,0.8733,0.8706,0.8705,0.8759,0.8765,0.8771,0.878,0.8719,0,0,0,0,0,0.9208,0.9209,0.9184,0.9171,0.9084,0.9035,0.9024,0.8967,0.8947,0.8943,0.8893,0.8854,0.8762,0.8759,0.8746,0.8748,0.866,0.8661,0.8663,0.8727,0.8735,0.8741,0,0,0,0,0,0,0.9202,0.9186,0.9184,0.9108,0.9087,0.9035,0.8989,0.8973,0.8946,0.8939,0.8865,0.8851,0.8801,0.8762,0.8751,0.8754,0.8723,0.8661,0.8662,0.8663,0.8729,0.8736,0.8741,0,0,0,0,0,0.9197,0.9184,0.906,0.9107,0.9089,0.9014,0.8988,0.8975,0.8953,0.8876,0.8862,0.8912,0.8803,0.879,0.8755,0.876,0.873,0.8726,0.8661,0.8662,0.8663,0.8733,0,0,0,0,0,0,0.9193,0.9171,0.9055,0.9047,0.9103,0.9015,0.9,0.8977,0.889,0.8876,0.892,0.8916,0.8804,0.8794,0.8784,0.8766,0.8736,0.8732,0.873,0.8662,0.8663,0.8664,0,0,0,0,0,0,0.9177,0.9165,0.9051,0.9049,0.904,0.9017,0.9004,0.8967,0.889,0.8939,0.8933,0.8919,0.8819,0.8797,0.8789,0.8733,0.874,0.8737,0.8734,0.8732,0.8663,0.8663,0,0,0,0,0,0,0.9171,0.916,0.905,0.9044,0.9036,0.8947,0.8983,0.8897,0.8889,0.8944,0.8887,0.8886,0.8823,0.8813,0.8792,0.8741,0.8735,0.874,0.8738,0.8736,0.8735,0,0,0,0,0,0,0,0.9166,0.9252,0.91,0.904,0.9033,0.8977,0.8975,0.8973,0.8889,0.8888,0.8887,0.8886,0.8762,0.8758,0.8753,0.8747,0,0,0.8741,0.8739,0,0,0,0,0,0,0,0,0.9255,0.9253,0.91,0.9098,0.9096,0.8977,0.8975,0.8974,0.8889,0.8888,0.8887,0.8887,0.8761,0.8757,0.8754,0,0,0,0,0,0,0,0,0,0,0,0,0,0,0,0.9099,0.9098,0,0.8977,0.8975,0.8974,0.8889,0.8888,0.8888,0.8887,0.876,0.8757,0.8754,0,0,0,0,0,0,0,0,0,0,0,0,0,0,0,0,0,0,0,0,0,0,0,0,0,0,0,0,0,0,0,0,0,0,0,0,0,0,0,0,0,0,0,0,0,0,0,0,0,0,0,0,0,0,0,0,0,0,0,0,0,0,0,0,0,0,0,0,0]}],[{"header":{"parameterUnit":"kt","parameterCategory":2,"dx":1,"dy":1,"la1":30.253999710083008,"la2":30.299108505249023,"lo1":-89.0895004272461,"lo2":-89.04439544677734,"nx":28,"ny":28,"refTime":"2022-10-21T21:00:00:Z","depth":0,"parameterNumber":2,"parameterNumberName":"V-component_of_WINDS"},"data":[7.2078,7.2161,7.2148,7.2235,7.2238,7.2295,7.2311,7.233,7.2341,7.2407,7.2441,7.2437,7.2443,7.248,7.2516,7.2513,7.2527,7.2565,7.2553,7.2399,7.2377,7.2355,7.2333,7.257,7.257,7.2712,7.2713,7.2714,7.196,7.1964,7.2009,7.2042,7.2078,7.2034,7.2056,7.2089,7.2141,7.2158,7.2192,7.2249,7.2292,7.2285,7.2323,7.2359,7.2339,7.237,7.2364,7.2364,7.2201,7.2177,7.2385,7.2385,7.2385,7.2385,7.2385,7.2385,7.1741,7.1793,7.1805,7.1853,7.1867,7.1889,7.1935,7.1928,7.197,7.2011,7.1988,7.2047,7.206,7.2101,7.2111,7.2155,7.2118,7.2147,7.2153,7.2159,7.2166,7.1953,7.2162,7.2161,7.2161,7.216,7.216,0,7.1575,7.1561,7.1603,7.1641,7.1676,7.1704,7.1728,7.1757,7.1722,7.1759,7.181,7.1838,7.1891,7.1937,7.1971,7.1976,7.193,7.1927,7.1945,7.1952,7.1955,7.1948,7.1676,7.1919,7.1917,7.1915,7.1914,7.1914,7.1347,7.1412,7.142,7.1452,7.1462,7.1514,7.1542,7.1507,7.1538,7.1562,7.1608,7.1655,7.169,7.1775,7.1765,7.1805,7.1782,7.1875,7.1788,7.1793,7.1776,7.177,7.1773,7.1891,7.1894,7.1896,7.1898,0,7.1219,7.1199,7.1294,7.1297,7.13,7.1368,7.1369,7.1419,7.1408,7.1475,7.1489,7.147,7.1521,7.1497,7.1552,7.1536,7.1641,7.1622,7.1635,7.1627,7.1704,7.1694,7.1968,7.1999,7.176,7.1763,7.1765,0,7.1014,7.1101,7.1064,7.1121,7.1214,7.1177,7.127,7.1269,7.1281,7.1334,7.1281,7.1331,7.1292,7.1339,7.1317,7.14,7.1412,7.1403,7.1395,7.1405,7.1405,7.1415,7.1401,7.1383,7.1382,7.1381,7.1379,0,7.081,7.0896,7.0988,7.1004,7.1016,7.106,7.1067,7.1081,7.1109,7.1142,7.1159,7.1202,7.1223,7.1255,7.1226,7.1167,7.1329,7.1241,7.1319,7.1319,7.1352,7.1349,7.1602,7.1378,7.1377,7.1377,7.1376,0,7.064,7.0676,7.0816,7.0823,7.0847,7.0909,7.0946,7.0995,7.1013,7.1003,7.103,7.0989,7.1065,7.0978,7.1078,7.1008,7.1032,7.1032,7.1037,7.1037,7.0939,7.1078,7.1327,7.1349,7.1043,7.104,7.1038,0,7.0408,7.0546,7.0515,7.0649,7.0708,7.0641,7.071,7.0729,7.0722,7.0769,7.0761,7.0816,7.0748,7.0761,7.0815,7.0807,7.0899,7.0795,7.0856,7.0859,7.0847,7.1078,7.1117,7.1277,7.1002,7.1006,7.1009,0,7.0226,7.0243,7.0269,7.0283,7.0305,7.0356,7.0437,7.0483,7.0516,7.0547,7.0608,7.069,7.0638,7.0662,7.0635,7.0692,7.0835,7.0629,7.0629,7.0662,7.0985,7.1021,7.1048,7.0804,7.0808,7.0811,7.0981,0,6.9961,7.0029,7.0102,7.0142,7.0178,7.0263,7.0237,7.0278,7.0247,7.0237,7.0332,7.0344,7.0391,7.0419,7.039,7.0531,7.0502,7.0448,7.0357,7.0512,7.0566,7.0589,7.0278,7.0276,7.0273,7.0271,0,0,6.9741,6.9838,6.9803,6.9881,6.9908,6.9838,6.993,6.9949,6.999,7.0009,6.9959,7.0074,7.0086,7.0203,7.0249,7.0272,7.0292,7.024,7.044,7.0459,7.0477,7.0536,7.056,7.0267,7.0266,7.0265,7.0265,0,6.9637,6.9655,6.9749,6.9767,6.9792,6.9778,6.9801,6.9814,6.9811,6.9908,6.9846,6.9901,6.9996,7.0013,7.0035,7.0227,7.0175,7.0245,7.0354,7.0418,7.044,7.0459,7.0522,7.0546,7.0259,7.0259,7.026,0,6.9448,6.9458,6.9502,6.9566,6.9582,6.9647,6.9547,6.9622,6.9668,6.9587,6.9682,6.9685,6.9709,6.9827,6.9879,6.9834,7.0069,6.9994,7.0008,7.0011,7.0071,7.0098,7.0122,6.9808,6.9806,6.9805,0,0,6.9362,6.9427,6.9427,6.9542,6.9556,6.9537,6.957,6.9542,6.9566,6.9576,6.9578,6.9602,6.9655,6.9692,6.9742,6.9876,6.9875,6.9939,6.996,6.9978,6.9991,7.0056,7.0083,6.9799,6.9799,6.9799,0,0,6.932,6.9324,6.9289,6.942,6.9445,6.9451,6.9521,6.9478,6.9521,6.9507,6.9463,6.9468,6.9578,6.9583,6.9512,6.9707,6.962,6.9636,6.9699,6.9726,6.9747,6.974,6.9408,0,0,0,0,0,6.92,6.9323,6.9291,6.931,6.9391,6.9469,6.9479,6.9446,6.9383,6.9439,6.9433,6.9378,6.9535,6.947,6.9488,6.9567,6.9727,6.974,6.9752,6.9865,6.9893,6.9916,0,0,0,0,0,0,6.9207,6.923,6.9288,6.93,6.9318,6.9465,6.935,6.9344,6.9376,6.9364,6.9381,6.9378,6.935,6.9459,6.9475,6.9551,6.9402,6.9732,6.9743,6.9753,6.9874,6.9897,6.9917,0,0,0,0,0,6.9213,6.9231,6.937,6.9298,6.9314,6.9299,6.9345,6.9339,6.9363,6.9355,6.9351,6.9335,6.9354,6.9365,6.9468,6.9544,6.9391,6.9397,6.974,6.9748,6.9756,6.9886,0,0,0,0,0,0,6.9216,6.9225,6.9372,6.9375,6.925,6.929,6.9295,6.9336,6.9352,6.9349,6.9307,6.9298,6.9358,6.9366,6.9375,6.9543,6.9381,6.9388,6.9392,6.9746,6.9753,6.9759,0,0,0,0,0,0,6.9215,6.9229,6.9374,6.9314,6.931,6.9282,6.9286,6.937,6.9353,6.9302,6.9295,6.9303,6.9343,6.9367,6.9374,6.9505,6.9374,6.938,6.9384,6.9387,6.9751,6.9757,0,0,0,0,0,0,6.922,6.9232,6.9313,6.931,6.9307,6.9342,6.9354,6.9439,6.9304,6.9303,6.929,6.9284,6.9346,6.9352,6.9373,6.9502,6.9505,6.9374,6.9378,6.9381,6.9383,0,0,0,0,0,0,0,6.9224,6.9156,6.9352,6.9307,6.9304,6.9406,6.9407,6.9408,6.9302,6.9297,6.9292,6.9287,6.9338,6.9345,6.9352,6.95,0,0,6.9373,6.9376,0,0,0,0,0,0,0,0,6.915,6.9154,6.9353,6.9353,6.9354,6.9406,6.9407,6.9408,6.9301,6.9297,6.9293,6.9289,6.934,6.9346,6.9351,0,0,0,0,0,0,0,0,0,0,0,0,0,0,0,6.9353,6.9353,0,6.9407,6.9407,6.9408,6.9301,6.9297,6.9294,6.929,6.9342,6.9346,6.9351,0,0,0,0,0,0,0,0,0,0,0,0,0,0,0,0,0,0,0,0,0,0,0,0,0,0,0,0,0,0,0,0,0,0,0,0,0,0,0,0,0,0,0,0,0,0,0,0,0,0,0,0,0,0,0,0,0,0,0,0,0,0,0,0,0,0,0,0,0]}]]]